DW3201 Weather Reports


time (UTC)temp
F
wind
direction
speed
knots
gust
knots
rain 1hr
in
rain 24hr
in
rain mn
in
humidity
%
barometer
mb
20260901213110 83 253 0.0 1.7 0.00 0.05 0.05 79 1013.3
20260901211559 83 0 0.0 0.9 0.00 0.05 0.05 80 1013.3
20260901210116 82 0 0.9 3.5 0.01 0.05 0.05 79 1013.4
20260901204613 82 0 0.0 1.7 0.02 0.05 0.05 82 1013.4
20260901203104 81 263 0.0 3.5 0.02 0.05 0.05 81 1013.4
20260901201600 80 260 0.9 2.6 0.04 0.05 0.05 87 1013.6
20260901200116 80 249 2.6 6.1 0.03 0.04 0.04 86 1013.9
20260901194611 80 243 0.9 2.6 0.02 0.03 0.03 91 1014.1
20260901193103 81 267 0.0 0.9 0.02 0.03 0.03 89 1013.8
20260901191636 82 0 0.0 1.7 0.00 0.01 0.01 84 1013.6
20260901190106 84 243 1.7 4.3 0.00 0.01 0.01 79 1014.3
20260901184605 85 240 1.7 3.5 0.00 0.01 0.01 76 1014.1
20260901183100 86 274 0.9 4.3 0.00 0.01 0.01 76 1014.0
20260901181619 86 276 1.7 5.2 0.00 0.01 0.01 77 1014.0
20260901180105 86 295 0.0 1.7 0.00 0.01 0.01 81 1013.9
20260901174601 83 260 0.9 1.7 0.00 0.01 0.01 83 1014.0
20260901173111 83 274 0.0 2.6 0.00 0.01 0.01 83 1014.1
20260901171606 83 149 0.0 0.9 0.00 0.01 0.01 87 1014.2
20260901170104 81 0 0.0 0.9 0.00 0.01 0.01 91 1014.2
20260901164618 79 0 0.0 0.9 0.00 0.01 0.01 92 1014.3
20260901163102 79 277 0.0 0.9 0.01 0.01 0.01 92 1014.3
20260901161602 79 250 0.9 3.5 0.01 0.01 0.01 92 1014.4
20260901160116 79 0 0.0 1.7 0.01 0.01 0.01 90 1014.4
20260901154600 81 47 0.0 1.7 0.01 0.01 0.01 87 1014.2
20260901153130 82 238 0.0 0.9 0.00 0.00 0.00 84 1014.6
20260901151608 81 0 0.0 0.0 0.00 0.00 0.00 84 1014.3
20260901150115 81 0 0.0 0.0 0.00 0.00 0.00 84 1014.4
20260901144602 81 0 0.0 0.9 0.00 0.00 0.00 85 1014.4
20260901143119 80 0 0.0 0.0 0.00 0.00 0.00 86 1014.2
20260901141612 80 0 0.0 0.9 0.00 0.00 0.00 86 1014.2
20260901140135 78 0 0.0 0.9 0.00 0.00 0.00 88 1014.2
20260901134602 78 0 0.0 0.9 0.00 0.00 0.00 89 1014.2
20260901133102 77 0 0.0 0.0 0.00 0.00 0.00 89 1014.3
20260901131604 76 0 0.0 0.0 0.00 0.00 0.00 91 1014.3
20260901130105 76 0 0.0 0.9 0.00 0.00 0.00 92 1014.1
20260901124601 75 0 0.0 0.0 0.00 0.00 0.00 93 1014.0
20260901123058 74 0 0.0 0.0 0.00 0.00 0.00 94 1014.2
20260901121606 73 0 0.0 0.0 0.00 0.00 0.00 94 1013.9
20260901120100 73 0 0.0 0.0 0.00 0.00 0.00 95 1013.7
20260901114558 73 0 0.0 0.0 0.00 0.00 0.00 95 1013.5
20260901113104 72 0 0.0 0.0 0.00 0.00 0.00 94 1013.3
20260901111558 72 0 0.0 0.0 0.00 0.00 0.00 94 1013.2
20260901104605 72 0 0.0 0.9 0.00 0.07 0.00 94 1012.9
20260901103059 72 0 0.0 0.0 0.00 0.07 0.00 94 1012.9
20260901101608 72 0 0.0 0.0 0.00 0.07 0.00 93 1012.9
20260901100101 73 0 0.0 0.0 0.00 0.07 0.00 92 1013.1
20260901094601 73 0 0.0 0.9 0.00 0.10 0.00 92 1013.0
20260901093110 74 256 0.0 0.9 0.00 0.10 0.00 92 1013.0
20260901091603 74 266 0.9 2.6 0.00 0.10 0.00 92 1013.1
20260901090059 74 257 0.9 2.6 0.00 0.10 0.00 93 1013.0
20260901084600 73 260 0.9 1.7 0.00 0.10 0.00 94 1013.1
20260901083059 72 257 0.0 0.9 0.00 0.10 0.00 95 1013.0
20260901081603 71 0 0.0 0.0 0.00 0.10 0.00 94 1012.9
20260901080207 71 0 0.0 0.0 0.00 0.10 0.00 94 1012.9
20260901074557 72 0 0.0 0.0 0.00 0.10 0.00 94 1013.0
20260901073102 72 0 0.0 0.0 0.00 0.10 0.00 94 1013.0
20260901071600 72 0 0.0 0.0 0.00 0.10 0.00 93 1012.9
20260901070132 73 0 0.0 0.0 0.00 0.10 0.00 91 1012.9
20260901064611 74 0 0.0 0.9 0.00 0.10 0.00 91 1012.8
20260901063105 74 274 0.0 0.9 0.00 0.10 0.00 93 1012.9
20260901061610 73 0 0.0 0.9 0.00 0.10 0.00 94 1013.0
20260901060103 73 0 0.0 0.9 0.00 0.10 0.00 95 1013.0
20260901054608 72 264 0.0 0.9 0.00 0.10 0.00 95 1013.0
20260901053111 71 0 0.0 0.0 0.00 0.10 0.00 94 1013.0
20260901051600 71 0 0.0 0.0 0.00 0.10 0.00 94 1013.0
20260901050104 72 0 0.0 0.0 0.00 0.10 0.00 94 1013.1
20260901044617 72 0 0.0 0.0 0.00 0.10 0.10 94 1013.1
20260901043059 72 0 0.0 0.0 0.00 0.10 0.10 94 1013.1
20260901041558 73 0 0.0 0.0 0.00 0.10 0.10 94 1013.0
20260901040104 73 0 0.0 0.0 0.00 0.10 0.10 94 1013.2
20260901034559 73 0 0.0 0.0 0.00 0.10 0.10 93 1013.2
20260901033056 73 0 0.0 0.0 0.00 0.10 0.10 93 1013.3
20260901031559 74 0 0.0 0.0 0.00 0.10 0.10 92 1013.3
20260901030059 74 0 0.0 0.0 0.00 0.10 0.10 92 1013.3
20260901024603 74 0 0.0 0.0 0.00 0.10 0.10 92 1013.2
20260901023102 75 0 0.0 0.0 0.00 0.10 0.10 91 1013.3
20260901021611 75 0 0.0 0.0 0.00 0.10 0.10 91 1013.2
20260901020104 76 0 0.0 0.9 0.00 0.10 0.10 89 1013.2
20260901014604 76 0 0.0 0.0 0.00 0.10 0.10 89 1012.9
20260901013121 76 0 0.0 0.0 0.00 0.10 0.10 89 1012.7
20260901011602 77 0 0.0 0.0 0.00 0.10 0.10 88 1012.6
20260901010115 78 0 0.0 0.0 0.00 0.10 0.10 86 1012.4
20260901004604 79 0 0.0 0.9 0.00 0.10 0.10 84 1012.3
20260901003102 79 0 0.0 0.0 0.00 0.10 0.10 83 1012.2
20260901001606 80 0 0.0 0.0 0.00 0.10 0.10 82 1012.2
20260901000058 80 0 0.0 0.9 0.00 0.10 0.10 81 1012.2
20260831234600 82 0 0.0 0.9 0.00 0.10 0.10 78 1012.1
20260831233100 82 0 0.0 0.9 0.00 0.10 0.10 76 1011.9
20260831231609 82 278 0.9 1.7 0.00 0.10 0.10 75 1011.8
20260831230105 83 277 0.0 2.6 0.00 0.10 0.10 74 1011.8
20260831224635 83 233 1.7 5.2 0.00 0.10 0.10 72 1012.0
20260831223059 83 277 2.6 5.2 0.00 0.10 0.10 71 1011.7
20260831221620 83 269 3.5 7.0 0.00 0.10 0.10 70 1011.7
20260831220107 83 262 2.6 8.7 0.00 0.10 0.10 71 1011.9
20260831214604 84 311 1.7 4.3 0.00 0.12 0.10 71 1011.7